Dades meteomassalio
Diari Summary for Juny 15, 2017 Units:  English    Metric   Both
« Previous Day
Next Day »
Diari Semanal Mensual Anual Personalitzat
  Maxima: Minima: Mijana:
Temperatura: TemperatureC °F 19.1 °F 27.7 °F
Rosada: DewpointC °F 13.2 °F 14.8 °F
Humitat: Humidity % 29 % 47 %
Velocitat del vent: WindSpeedKMH mph 0.0 mph 2.8 mph
Racha vent: WindSpeedGustKMH mph - -
Vent:- - SW
Pressio: PressurehPa in 1011.1 in -
Pluja: 0.0 in    
Historical Graphs
 
 
Tabular Data for Juny 15, 2017
Time Temperature Dew Point Pressure Wind Wind Speed Wind Gust Humidity Rainfall Rate (Hourly) solar Conditions
TemperatureC °F DewpointC °F PressurehPa in Calm     Humidity % HourlyPrecipMM in SolarRadiationWatts/m^2 W/m2 Conditions
00:04 25.8 °F 13.6 °F 1011.1 in Calm     47 % 0.0 in 0.0 W/m2 CLR
00:09 25.6 °F 13.4 °F 1011.4 in Calm     47 % 0.0 in 0.0 W/m2 CLR
00:14 25.4 °F 13.3 °F 1011.4 in Calm     47 % 0.0 in 0.0 W/m2 CLR
00:19 25.3 °F 13.2 °F 1011.4 in Calm     47 % 0.0 in 0.0 W/m2 CLR
00:24 25.3 °F 13.8 °F 1011.4 in Calm     49 % 0.0 in 0.0 W/m2 CLR
00:29 25.0 °F 13.6 °F 1011.4 in Calm     49 % 0.0 in 0.0 W/m2 CLR
00:34 24.8 °F 13.4 °F 1011.7 in Calm     49 % 0.0 in 0.0 W/m2 CLR
00:39 24.6 °F 13.5 °F 1011.7 in Calm     50 % 0.0 in 0.0 W/m2 CLR
00:44 24.5 °F 13.4 °F 1011.7 in Calm     50 % 0.0 in 0.0 W/m2 CLR
00:49 24.4 °F 13.3 °F 1011.7 in Calm     50 % 0.0 in 0.0 W/m2 CLR
00:54 24.5 °F 13.4 °F 1011.7 in Calm     50 % 0.0 in 0.0 W/m2 CLR
00:59 24.5 °F 13.4 °F 1011.7 in Calm     50 % 0.0 in 0.0 W/m2 CLR
01:04 24.4 °F 13.7 °F 1011.7 in Calm     51 % 0.0 in 0.0 W/m2 CLR
01:09 24.4 °F 13.6 °F 1011.7 in Calm     51 % 0.0 in 0.0 W/m2 CLR
01:14 24.3 °F 13.6 °F 1011.7 in Calm     51 % 0.0 in 0.0 W/m2 CLR
01:19 24.3 °F 13.2 °F 1011.7 in Calm     50 % 0.0 in 0.0 W/m2 CLR
01:24 24.2 °F 13.4 °F 1011.7 in Calm     51 % 0.0 in 0.0 W/m2 CLR
01:29 24.2 °F 13.4 °F 1011.7 in Calm     51 % 0.0 in 0.0 W/m2 CLR
01:34 24.2 °F 13.4 °F 1011.7 in Calm     51 % 0.0 in 0.0 W/m2 CLR
01:39 24.2 °F 13.4 °F 1011.7 in Calm     51 % 0.0 in 0.0 W/m2 CLR
01:44 24.1 °F 13.3 °F 1011.7 in Calm     51 % 0.0 in 0.0 W/m2 CLR
01:49 24.0 °F 13.6 °F 1011.7 in Calm     52 % 0.0 in 0.0 W/m2 CLR
01:54 23.8 °F 13.9 °F 1011.7 in Calm     54 % 0.0 in 0.0 W/m2 CLR
01:59 23.6 °F 13.7 °F 1011.7 in Calm     54 % 0.0 in 0.0 W/m2 CLR
02:04 23.4 °F 13.6 °F 1011.7 in Calm     54 % 0.0 in 0.0 W/m2 CLR
02:09 23.4 °F 13.6 °F 1011.7 in Calm     54 % 0.0 in 0.0 W/m2 CLR
02:10 23.4 °F 13.6 °F 1011.7 in Calm     54 % 0.0 in 0.0 W/m2 CLR
02:15 23.3 °F 13.4 °F 1011.7 in Calm     54 % 0.0 in 0.0 W/m2 CLR
02:20 23.2 °F 13.9 °F 1011.7 in Calm     56 % 0.0 in 0.0 W/m2 CLR
02:25 23.1 °F 13.6 °F 1011.7 in Calm     55 % 0.0 in 0.0 W/m2 CLR
02:30 23.0 °F 13.7 °F 1011.7 in Calm     56 % 0.0 in 0.0 W/m2 CLR
02:35 22.6 °F 13.7 °F 1011.7 in Calm     57 % 0.0 in 0.0 W/m2 CLR
02:40 22.3 °F 13.7 °F 1011.7 in Calm     58 % 0.0 in 0.0 W/m2 CLR
02:45 22.2 °F 13.5 °F 1011.7 in Calm     58 % 0.0 in 0.0 W/m2 CLR
02:50 22.1 °F 13.7 °F 1011.7 in Calm     59 % 0.0 in 0.0 W/m2 CLR
02:55 22.0 °F 13.6 °F 1011.7 in Calm     59 % 0.0 in 0.0 W/m2 CLR
03:00 21.9 °F 13.8 °F 1012.1 in Calm     60 % 0.0 in 0.0 W/m2 CLR
03:05 21.8 °F 13.7 °F 1011.7 in Calm     60 % 0.0 in 0.0 W/m2 CLR
03:10 21.7 °F 13.9 °F 1011.7 in Calm     61 % 0.0 in 0.0 W/m2 CLR
03:15 21.5 °F 13.7 °F 1011.7 in Calm     61 % 0.0 in 0.0 W/m2 CLR
03:20 21.4 °F 13.8 °F 1012.1 in Calm     62 % 0.0 in 0.0 W/m2 CLR
03:25 21.3 °F 13.7 °F 1012.1 in Calm     62 % 0.0 in 0.0 W/m2 CLR
03:30 21.2 °F 13.9 °F 1012.1 in Calm     63 % 0.0 in 0.0 W/m2 CLR
03:35 21.2 °F 14.1 °F 1012.1 in Calm     64 % 0.0 in 0.0 W/m2 CLR
03:40 21.1 °F 14.0 °F 1012.1 in Calm     64 % 0.0 in 0.0 W/m2 CLR
03:45 20.9 °F 13.9 °F 1012.1 in Calm     64 % 0.0 in 0.0 W/m2 CLR
03:50 20.8 °F 13.7 °F 1012.1 in Calm     64 % 0.0 in 0.0 W/m2 CLR
03:55 20.7 °F 13.9 °F 1012.1 in Calm     65 % 0.0 in 0.0 W/m2 CLR
04:00 20.6 °F 13.8 °F 1012.1 in Calm     65 % 0.0 in 0.0 W/m2 CLR
04:05 20.4 °F 13.7 °F 1012.1 in Calm     65 % 0.0 in 0.0 W/m2 CLR
04:10 20.3 °F 13.7 °F 1012.1 in Calm     66 % 0.0 in 0.0 W/m2 CLR
04:15 20.2 °F 13.7 °F 1012.1 in Calm     66 % 0.0 in 0.0 W/m2 CLR
04:20 20.2 °F 13.7 °F 1012.1 in Calm     66 % 0.0 in 0.0 W/m2 CLR
04:25 20.1 °F 13.8 °F 1012.4 in Calm     67 % 0.0 in 0.0 W/m2 CLR
04:30 20.1 °F 13.7 °F 1012.4 in Calm     67 % 0.0 in 0.0 W/m2 CLR
04:35 19.9 °F 13.6 °F 1012.4 in Calm     67 % 0.0 in 0.0 W/m2 CLR
04:40 19.8 °F 13.8 °F 1012.4 in Calm     68 % 0.0 in 0.0 W/m2 CLR
04:45 19.8 °F 13.7 °F 1012.4 in Calm     68 % 0.0 in 0.0 W/m2 CLR
04:50 19.7 °F 13.6 °F 1012.4 in Calm     68 % 0.0 in 0.0 W/m2 CLR
04:55 19.6 °F 13.7 °F 1012.8 in Calm     69 % 0.0 in 0.0 W/m2 CLR
05:00 19.5 °F 13.7 °F 1012.8 in Calm     69 % 0.0 in 0.0 W/m2 CLR
05:05 19.5 °F 13.7 °F 1012.8 in Calm     69 % 0.0 in 0.0 W/m2 CLR
05:10 19.5 °F 13.7 °F 1012.8 in Calm     69 % 0.0 in 0.0 W/m2 CLR
05:15 19.5 °F 13.7 °F 1012.8 in Calm     69 % 0.0 in 0.0 W/m2 CLR
05:20 19.5 °F 13.7 °F 1012.8 in Calm     69 % 0.0 in 0.0 W/m2 CLR
05:25 19.4 °F 13.6 °F 1013.1 in Calm     69 % 0.0 in 0.0 W/m2 CLR
05:30 19.3 °F 13.5 °F 1013.1 in Calm     69 % 0.0 in 0.0 W/m2 CLR
05:35 19.2 °F 13.6 °F 1013.1 in Calm     70 % 0.0 in 0.0 W/m2 CLR
05:40 19.2 °F 13.6 °F 1013.1 in Calm     70 % 0.0 in 0.0 W/m2 CLR
05:45 19.2 °F 13.6 °F 1013.1 in Calm     70 % 0.0 in 0.0 W/m2 CLR
05:50 19.2 °F 13.6 °F 1013.1 in Calm     70 % 0.0 in 0.0 W/m2 CLR
05:55 19.2 °F 13.6 °F 1013.1 in Calm     70 % 0.0 in 0.0 W/m2 CLR
06:00 19.4 °F 13.6 °F 1013.1 in Calm     69 % 0.0 in 0.0 W/m2 CLR
06:05 19.7 °F 13.8 °F 1013.4 in WSW 5.6 mph 5.6 mph 69 % 0.0 in 0.0 W/m2 CLR
06:06 19.7 °F 13.8 °F 1013.4 in WSW 5.6 mph 5.6 mph 69 % 0.0 in 0.0 W/m2 CLR
06:11 19.8 °F 13.8 °F 1013.4 in WSW 5.6 mph 5.6 mph 68 % 0.0 in 0.0 W/m2 CLR
06:16 19.9 °F 13.6 °F 1013.4 in WSW 5.6 mph 5.6 mph 67 % 0.0 in 0.0 W/m2 CLR
06:21 20.1 °F 13.7 °F 1013.4 in Calm     67 % 0.0 in 0.0 W/m2 OVC
06:26 20.1 °F 13.7 °F 1013.4 in Calm     67 % 0.0 in 0.0 W/m2 OVC
06:31 20.1 °F 13.7 °F 1013.4 in Calm     67 % 0.0 in 5.0 W/m2 OVC
06:36 19.9 °F 13.8 °F 1013.8 in Calm     68 % 0.0 in 9.0 W/m2 BKN
06:41 19.6 °F 13.8 °F 1013.8 in Calm     69 % 0.0 in 12.0 W/m2 BKN
06:46 19.4 °F 13.8 °F 1013.8 in Calm     70 % 0.0 in 16.0 W/m2 BKN
06:51 19.3 °F 13.9 °F 1013.8 in Calm     71 % 0.0 in 21.0 W/m2 BKN
06:56 19.1 °F 13.7 °F 1013.8 in Calm     71 % 0.0 in 25.0 W/m2 BKN
07:01 19.2 °F 14.0 °F 1013.8 in Calm     72 % 0.0 in 30.0 W/m2 BKN
07:06 19.6 °F 14.2 °F 1013.8 in SSW 5.6 mph 5.6 mph 71 % 0.0 in 39.0 W/m2 BKN
07:11 20.0 °F 14.1 °F 1013.8 in SSW 1.9 mph 1.9 mph 69 % 0.0 in 46.0 W/m2 SCT
07:16 20.1 °F 14.2 °F 1013.8 in SSW 5.6 mph 5.6 mph 69 % 0.0 in 56.0 W/m2 SCT
07:21 20.4 °F 14.3 °F 1013.8 in SW 6.4 mph 6.4 mph 68 % 0.0 in 67.0 W/m2 FEW
07:26 20.9 °F 14.6 °F 1014.1 in Calm     67 % 0.0 in 81.0 W/m2 FEW
07:31 21.1 °F 14.7 °F 1014.1 in Calm     67 % 0.0 in 95.0 W/m2 FEW
07:36 21.2 °F 14.6 °F 1014.1 in Calm     66 % 0.0 in 109.0 W/m2 CLR
07:41 21.2 °F 14.6 °F 1014.1 in Calm     66 % 0.0 in 125.0 W/m2 CLR
07:46 21.2 °F 14.6 °F 1014.4 in Calm     66 % 0.0 in 141.0 W/m2 CLR
07:51 21.3 °F 14.7 °F 1014.4 in Calm     66 % 0.0 in 163.0 W/m2 CLR
07:56 21.6 °F 14.7 °F 1014.4 in Calm     65 % 0.0 in 163.0 W/m2 CLR
08:01 21.9 °F 14.8 °F 1014.4 in Calm     64 % 0.0 in 178.0 W/m2 CLR
08:06 22.3 °F 14.9 °F 1014.4 in Calm     63 % 0.0 in 220.0 W/m2 CLR
08:11 22.7 °F 15.1 °F 1014.4 in Calm     62 % 0.0 in 230.0 W/m2 CLR
08:16 23.1 °F 15.1 °F 1014.4 in Calm     61 % 0.0 in 216.0 W/m2 CLR
08:21 23.3 °F 15.1 °F 1014.8 in Calm     60 % 0.0 in 221.0 W/m2 CLR
08:26 23.5 °F 15.3 °F 1014.8 in Calm     60 % 0.0 in 218.0 W/m2 CLR
08:31 23.7 °F 15.5 °F 1014.8 in Calm     60 % 0.0 in 246.0 W/m2 CLR
08:36 24.1 °F 15.6 °F 1014.8 in Calm     59 % 0.0 in 250.0 W/m2 CLR
08:41 24.3 °F 15.6 °F 1014.8 in Calm     58 % 0.0 in 241.0 W/m2 CLR
08:46 24.6 °F 15.5 °F 1014.8 in Calm     57 % 0.0 in 265.0 W/m2 CLR
08:51 24.9 °F 15.5 °F 1014.8 in Calm     56 % 0.0 in 274.0 W/m2 CLR
08:56 25.1 °F 15.4 °F 1014.8 in Calm     55 % 0.0 in 294.0 W/m2 CLR
09:01 25.3 °F 15.3 °F 1014.8 in Calm     54 % 0.0 in 285.0 W/m2 CLR
09:06 25.5 °F 15.5 °F 1014.8 in Calm     54 % 0.0 in 323.0 W/m2 CLR
09:11 25.8 °F 14.6 °F 1014.8 in NW 13.0 mph 13.0 mph 50 % 0.0 in 329.0 W/m2 CLR
09:16 25.9 °F 14.4 °F 1014.8 in WNW 11.1 mph 11.1 mph 49 % 0.0 in 311.0 W/m2 CLR
09:21 26.1 °F 14.8 °F 1014.8 in West 13.0 mph 13.0 mph 50 % 0.0 in 309.0 W/m2 CLR
09:26 26.1 °F 14.6 °F 1015.1 in WSW 9.3 mph 9.3 mph 49 % 0.0 in 350.0 W/m2 CLR
09:31 26.3 °F 14.7 °F 1015.1 in NW 5.6 mph 5.6 mph 49 % 0.0 in 411.0 W/m2 CLR
09:36 26.5 °F 14.6 °F 1015.1 in SW 5.6 mph 5.6 mph 48 % 0.0 in 431.0 W/m2 CLR
09:42 26.7 °F 14.7 °F 1015.1 in WSW 6.4 mph 6.4 mph 48 % 0.0 in 485.0 W/m2 CLR
09:47 26.7 °F 14.2 °F 1015.1 in WSW 11.1 mph 11.1 mph 46 % 0.0 in 519.0 W/m2 CLR
09:52 26.8 °F 13.5 °F 1015.1 in West 11.1 mph 11.1 mph 44 % 0.0 in 529.0 W/m2 CLR
09:57 26.9 °F 13.7 °F 1015.5 in NW 7.4 mph 7.4 mph 44 % 0.0 in 531.0 W/m2 CLR
10:02 27.1 °F 13.8 °F 1015.5 in Calm     44 % 0.0 in 517.0 W/m2 CLR
10:07 27.5 °F 13.8 °F 1015.1 in WSW 5.6 mph 5.6 mph 43 % 0.0 in 547.0 W/m2 CLR
10:12 27.6 °F 13.8 °F 1015.1 in WSW 9.3 mph 9.3 mph 43 % 0.0 in 547.0 W/m2 CLR
10:17 27.7 °F 14.0 °F 1015.5 in Calm   2.4 mph 43 % 0.0 in 603.0 W/m2 CLR
10:22 27.9 °F 13.8 °F 1015.1 in WNW 11.1 mph   42 % 0.0 in 592.0 W/m2 CLR
10:27 28.1 °F 14.0 °F 1015.1 in NNW 1.9 mph   42 % 0.0 in 596.0 W/m2 CLR
10:32 28.6 °F 14.4 °F 1015.1 in NW 3.7 mph 3.7 mph 42 % 0.0 in 613.0 W/m2 CLR
10:37 28.7 °F 14.1 °F 1015.1 in Calm     41 % 0.0 in 619.0 W/m2 CLR
10:42 28.9 °F 14.3 °F 1015.5 in NNW 14.8 mph 14.8 mph 41 % 0.0 in 545.0 W/m2 CLR
10:47 29.0 °F 14.4 °F 1015.1 in WNW 9.3 mph 9.3 mph 41 % 0.0 in 650.0 W/m2 CLR
10:52 29.1 °F 14.1 °F 1015.1 in NNW 1.9 mph   40 % 0.0 in 661.0 W/m2 CLR
10:57 29.1 °F 14.1 °F 1015.5 in WNW 11.1 mph 11.1 mph 40 % 0.0 in 570.0 W/m2 CLR
11:02 29.1 °F 14.1 °F 1015.5 in NW 9.3 mph 9.3 mph 40 % 0.0 in 705.0 W/m2 CLR
11:07 29.2 °F 14.2 °F 1015.5 in North 1.9 mph   40 % 0.0 in 534.0 W/m2 CLR
11:12 29.4 °F 14.1 °F 1015.5 in WSW 1.9 mph   39 % 0.0 in 631.0 W/m2 CLR
11:17 29.6 °F 14.1 °F 1015.5 in NW 7.4 mph 7.4 mph 39 % 0.0 in 745.0 W/m2 CLR
11:22 29.6 °F 14.1 °F 1015.5 in NNW 5.6 mph 5.6 mph 39 % 0.0 in 640.0 W/m2 CLR
11:27 29.6 °F 14.2 °F 1015.5 in NW 11.3 mph 11.3 mph 39 % 0.0 in 768.0 W/m2 CLR
11:32 29.7 °F 14.2 °F 1015.5 in NNW 7.4 mph 7.4 mph 39 % 0.0 in 814.0 W/m2 CLR
11:37 29.8 °F 14.3 °F 1015.5 in Calm     39 % 0.0 in 791.0 W/m2 CLR
11:42 29.7 °F 13.9 °F 1015.5 in Calm     38 % 0.0 in 334.0 W/m2 CLR
11:47 29.9 °F 14.1 °F 1015.5 in Calm     38 % 0.0 in 642.0 W/m2 CLR
11:52 30.1 °F 14.2 °F 1015.5 in NNE 5.6 mph 5.6 mph 38 % 0.0 in 555.0 W/m2 CLR
11:57 30.4 °F 14.5 °F 1015.5 in Calm     38 % 0.0 in 775.0 W/m2 CLR
12:02 30.6 °F 14.3 °F 1015.5 in Calm     37 % 0.0 in 837.0 W/m2 CLR
12:07 30.8 °F 14.4 °F 1015.5 in Calm     37 % 0.0 in 831.0 W/m2 CLR
12:12 31.2 °F 14.4 °F 1015.5 in NNW 1.9 mph 1.9 mph 36 % 0.0 in 810.0 W/m2 CLR
12:17 31.3 °F 14.4 °F 1015.5 in Calm     36 % 0.0 in 847.0 W/m2 CLR
12:22 31.3 °F 14.9 °F 1015.5 in NNE 5.6 mph 5.6 mph 37 % 0.0 in 853.0 W/m2 CLR
12:27 31.7 °F 14.8 °F 1015.5 in Calm     36 % 0.0 in 860.0 W/m2 CLR
12:32 31.9 °F 14.6 °F 1015.5 in Calm     35 % 0.0 in 830.0 W/m2 CLR
12:37 31.9 °F 14.9 °F 1015.5 in Calm     36 % 0.0 in 849.0 W/m2 CLR
12:42 31.9 °F 15.4 °F 1015.5 in ENE 1.9 mph 1.9 mph 37 % 0.0 in 856.0 W/m2 CLR
12:47 32.3 °F 14.9 °F 1015.5 in NNW 3.2 mph 3.2 mph 35 % 0.0 in 846.0 W/m2 CLR
12:52 32.2 °F 15.3 °F 1015.5 in Calm     36 % 0.0 in 886.0 W/m2 CLR
12:57 32.4 °F 15.4 °F 1015.5 in NE 13.0 mph 13.0 mph 36 % 0.0 in 872.0 W/m2 CLR
13:02 32.5 °F 15.5 °F 1015.5 in Calm     36 % 0.0 in 944.0 W/m2 CLR
13:07 32.5 °F 15.1 °F 1015.5 in ENE 7.4 mph 7.4 mph 35 % 0.0 in 800.0 W/m2 CLR
13:12 32.5 °F 15.5 °F 1015.5 in East 9.3 mph 9.3 mph 36 % 0.0 in 861.0 W/m2 CLR
13:17 32.4 °F 15.0 °F 1015.1 in ENE 5.6 mph 5.6 mph 35 % 0.0 in 849.0 W/m2 CLR
13:22 32.4 °F 15.0 °F 1015.1 in NE 9.3 mph 9.3 mph 35 % 0.0 in 875.0 W/m2 CLR
13:27 32.6 °F 15.2 °F 1015.1 in ESE 5.6 mph 5.6 mph 35 % 0.0 in 886.0 W/m2 CLR
13:32 32.7 °F 15.2 °F 1015.1 in ENE 5.6 mph   35 % 0.0 in 865.0 W/m2 CLR
13:37 32.8 °F 15.8 °F 1015.1 in NNE 9.3 mph 9.3 mph 36 % 0.0 in 891.0 W/m2 CLR
13:42 33.0 °F 15.5 °F 1015.1 in ENE 9.7 mph 9.7 mph 35 % 0.0 in 893.0 W/m2 CLR
13:47 32.8 °F 15.3 °F 1015.1 in East 1.9 mph 1.9 mph 35 % 0.0 in 909.0 W/m2 CLR
13:52 33.1 °F 15.1 °F 1015.1 in East 8.0 mph 8.0 mph 34 % 0.0 in 914.0 W/m2 CLR
13:57 33.2 °F 15.7 °F 1015.1 in Calm   1.0 mph 35 % 0.0 in 916.0 W/m2 CLR
14:02 33.4 °F 15.8 °F 1015.1 in ENE 1.6 mph   35 % 0.0 in 756.0 W/m2 CLR
14:07 33.4 °F 15.4 °F 1015.1 in Calm     34 % 0.0 in 926.0 W/m2 CLR
14:12 33.6 °F 15.1 °F 1015.1 in NE 6.4 mph 6.4 mph 33 % 0.0 in 900.0 W/m2 CLR
14:17 33.6 °F 15.1 °F 1014.8 in Calm     33 % 0.0 in 807.0 W/m2 CLR
14:22 33.7 °F 15.7 °F 1014.8 in NE 5.6 mph   34 % 0.0 in 745.0 W/m2 CLR
14:27 33.8 °F 15.8 °F 1014.8 in Calm     34 % 0.0 in 854.0 W/m2 CLR
14:32 34.1 °F 16.0 °F 1014.8 in NNW 11.1 mph 11.1 mph 34 % 0.0 in 796.0 W/m2 CLR
14:33 34.1 °F 16.0 °F 1014.8 in NW 11.1 mph 11.1 mph 34 % 0.0 in 796.0 W/m2 CLR
14:38 34.1 °F 15.6 °F 1014.8 in NW 9.3 mph 9.3 mph 33 % 0.0 in 849.0 W/m2 CLR
14:43 34.3 °F 15.7 °F 1014.8 in Calm     33 % 0.0 in 849.0 W/m2 CLR
14:48 34.9 °F 15.7 °F 1014.4 in ENE 1.6 mph   32 % 0.0 in 891.0 W/m2 CLR
14:53 35.2 °F 15.5 °F 1014.4 in NE 5.6 mph 5.6 mph 31 % 0.0 in 911.0 W/m2 CLR
14:58 35.2 °F 15.5 °F 1014.4 in Calm     31 % 0.0 in 867.0 W/m2 CLR
15:03 35.2 °F 15.5 °F 1014.4 in NE 9.3 mph 9.3 mph 31 % 0.0 in 868.0 W/m2 CLR
15:08 35.3 °F 15.6 °F 1014.4 in Calm     31 % 0.0 in 904.0 W/m2 CLR
15:13 35.5 °F 15.8 °F 1014.4 in ENE 1.9 mph   31 % 0.0 in 949.0 W/m2 CLR
15:18 35.3 °F 15.6 °F 1014.4 in Calm     31 % 0.0 in 916.0 W/m2 CLR
15:23 35.3 °F 15.1 °F 1014.1 in Calm     30 % 0.0 in 932.0 W/m2 CLR
15:28 35.3 °F 15.1 °F 1014.1 in North 8.0 mph 8.0 mph 30 % 0.0 in 946.0 W/m2 CLR
15:33 35.5 °F 15.3 °F 1014.1 in NNW 8.0 mph 8.0 mph 30 % 0.0 in 993.0 W/m2 CLR
15:38 35.8 °F 15.0 °F 1014.1 in WNW 6.4 mph 6.4 mph 29 % 0.0 in 747.0 W/m2 CLR
15:43 35.7 °F 14.9 °F 1014.1 in West 5.6 mph 5.6 mph 29 % 0.0 in 599.0 W/m2 CLR
15:48 35.7 °F 14.9 °F 1014.1 in WNW 5.6 mph 5.6 mph 29 % 0.0 in 673.0 W/m2 CLR
15:53 35.9 °F 15.1 °F 1014.1 in WNW 6.4 mph 6.4 mph 29 % 0.0 in 606.0 W/m2 CLR
15:58 36.0 °F 15.2 °F 1014.1 in Calm     29 % 0.0 in 615.0 W/m2 CLR
16:03 35.9 °F 15.1 °F 1014.1 in Calm     29 % 0.0 in 392.0 W/m2 CLR
16:08 35.8 °F 15.0 °F 1014.1 in Calm     29 % 0.0 in 343.0 W/m2 CLR
16:13 35.6 °F 14.8 °F 1014.1 in Calm     29 % 0.0 in 302.0 W/m2 CLR
16:18 35.6 °F 14.8 °F 1014.1 in Calm     29 % 0.0 in 279.0 W/m2 CLR
16:23 35.6 °F 15.4 °F 1013.8 in NNE 1.9 mph 1.9 mph 30 % 0.0 in 262.0 W/m2 CLR
16:28 35.7 °F 15.4 °F 1013.8 in NNW 5.6 mph 5.6 mph 30 % 0.0 in 244.0 W/m2 CLR
16:33 35.5 °F 15.3 °F 1013.8 in Calm     30 % 0.0 in 218.0 W/m2 CLR
16:38 35.3 °F 15.6 °F 1013.8 in NNW 7.4 mph 7.4 mph 31 % 0.0 in 174.0 W/m2 CLR
16:43 34.9 °F 15.3 °F 1013.8 in North 9.3 mph 9.3 mph 31 % 0.0 in 139.0 W/m2 CLR
16:48 34.6 °F 15.5 °F 1013.8 in North 9.7 mph 9.7 mph 32 % 0.0 in 113.0 W/m2 CLR
16:53 34.3 °F 15.7 °F 1014.1 in WNW 9.7 mph 9.7 mph 33 % 0.0 in 100.0 W/m2 CLR
16:58 34.1 °F 15.5 °F 1014.1 in NNW 7.4 mph 7.4 mph 33 % 0.0 in 95.0 W/m2 CLR
17:03 33.8 °F 15.7 °F 1014.1 in WNW 12.9 mph 12.9 mph 34 % 0.0 in 100.0 W/m2 CLR
17:08 33.6 °F 15.6 °F 1014.4 in NW 13.0 mph 13.0 mph 34 % 0.0 in 111.0 W/m2 CLR
17:13 33.6 °F 15.6 °F 1014.4 in WNW 13.0 mph 13.0 mph 34 % 0.0 in 123.0 W/m2 CLR
17:16 33.6 °F 15.6 °F 1014.4 in WNW 11.1 mph 11.1 mph 34 % 0.0 in 134.0 W/m2 CLR
17:26 33.5 °F 15.9 °F 1014.4 in WNW 7.4 mph 7.4 mph 35 % 0.0 in 174.0 W/m2 CLR
17:31 33.5 °F 15.9 °F 1014.4 in West 11.1 mph 11.1 mph 35 % 0.0 in 186.0 W/m2 CLR
17:36 33.5 °F 16.4 °F 1014.4 in West 14.8 mph 14.8 mph 36 % 0.0 in 190.0 W/m2 CLR
17:41 33.5 °F 15.9 °F 1014.4 in West 18.5 mph 18.5 mph 35 % 0.0 in 183.0 W/m2 CLR
17:46 33.5 °F 15.9 °F 1014.4 in WSW 9.7 mph 9.7 mph 35 % 0.0 in 174.0 W/m2 CLR
17:51 33.5 °F 15.9 °F 1014.4 in WSW 12.9 mph 12.9 mph 35 % 0.0 in 167.0 W/m2 CLR
17:56 33.5 °F 15.9 °F 1014.4 in West 8.0 mph 8.0 mph 35 % 0.0 in 156.0 W/m2 CLR
18:01 33.4 °F 15.9 °F 1014.4 in West 16.7 mph 16.7 mph 35 % 0.0 in 148.0 W/m2 CLR
18:06 33.4 °F 15.9 °F 1014.4 in West 11.3 mph 11.3 mph 35 % 0.0 in 144.0 W/m2 CLR
18:12 33.3 °F 15.8 °F 1014.4 in WSW 11.1 mph 11.1 mph 35 % 0.0 in 144.0 W/m2 CLR
18:17 33.3 °F 16.2 °F 1014.4 in WSW 5.6 mph 5.6 mph 36 % 0.0 in 144.0 W/m2 CLR
18:22 33.3 °F 15.7 °F 1014.4 in West 7.4 mph 7.4 mph 35 % 0.0 in 142.0 W/m2 CLR
18:27 33.2 °F 16.1 °F 1014.4 in SW 9.3 mph 9.3 mph 36 % 0.0 in 139.0 W/m2 CLR
18:32 33.2 °F 16.1 °F 1014.1 in Calm     36 % 0.0 in 137.0 W/m2 CLR
18:37 33.1 °F 16.1 °F 1014.1 in Calm     36 % 0.0 in 137.0 W/m2 CLR
18:42 33.1 °F 15.6 °F 1014.1 in Calm     35 % 0.0 in 132.0 W/m2 CLR
18:47 33.1 °F 15.6 °F 1013.8 in Calm     35 % 0.0 in 128.0 W/m2 CLR
18:52 33.1 °F 16.0 °F 1013.8 in Calm     36 % 0.0 in 123.0 W/m2 CLR
18:57 33.1 °F 16.0 °F 1013.8 in Calm     36 % 0.0 in 118.0 W/m2 CLR
19:02 33.1 °F 15.6 °F 1013.8 in Calm     35 % 0.0 in 109.0 W/m2 CLR
19:07 33.1 °F 16.0 °F 1013.8 in Calm     36 % 0.0 in 98.0 W/m2 CLR
19:12 33.1 °F 16.0 °F 1013.8 in Calm     36 % 0.0 in 91.0 W/m2 CLR
19:17 33.1 °F 16.0 °F 1014.1 in Calm     36 % 0.0 in 88.0 W/m2 CLR
19:19 33.0 °F 15.9 °F 1014.1 in Calm     36 % 0.0 in 88.0 W/m2 CLR
19:24 32.9 °F 15.4 °F 1014.1 in Calm     35 % 0.0 in 86.0 W/m2 CLR
19:29 32.9 °F 14.9 °F 1014.1 in Calm     34 % 0.0 in 88.0 W/m2 CLR
19:34 32.9 °F 14.5 °F 1014.1 in Calm     33 % 0.0 in 90.0 W/m2 CLR
19:39 32.9 °F 14.9 °F 1014.4 in Calm     34 % 0.0 in 86.0 W/m2 CLR
19:44 32.8 °F 14.4 °F 1014.4 in Calm     33 % 0.0 in 79.0 W/m2 CLR
19:50 32.8 °F 13.9 °F 1014.4 in Calm     32 % 0.0 in 72.0 W/m2 FEW
19:55 32.8 °F 13.9 °F 1014.1 in Calm     32 % 0.0 in 65.0 W/m2 FEW
20:00 32.8 °F 15.3 °F 1014.4 in Calm     35 % 0.0 in 63.0 W/m2 FEW
20:05 32.7 °F 14.8 °F 1014.4 in Calm     34 % 0.0 in 63.0 W/m2 SCT
20:10 32.6 °F 15.6 °F 1014.4 in Calm     36 % 0.0 in 63.0 W/m2 SCT
20:15 32.4 °F 15.8 °F 1014.4 in Calm     37 % 0.0 in 60.0 W/m2 SCT
20:20 32.2 °F 16.1 °F 1014.4 in Calm     38 % 0.0 in 54.0 W/m2 SCT
20:25 31.9 °F 15.0 °F 1014.4 in Calm     36 % 0.0 in 49.0 W/m2 SCT
20:30 31.9 °F 16.2 °F 1014.8 in Calm     39 % 0.0 in 44.0 W/m2 SCT
20:35 31.7 °F 15.7 °F 1014.8 in Calm     38 % 0.0 in 37.0 W/m2 BKN
20:40 31.6 °F 15.1 °F 1014.8 in Calm     37 % 0.0 in 32.0 W/m2 BKN
20:45 31.4 °F 14.9 °F 1014.8 in Calm     37 % 0.0 in 25.0 W/m2 BKN
20:50 31.2 °F 16.0 °F 1015.1 in Calm     40 % 0.0 in 21.0 W/m2 BKN
20:55 31.1 °F 15.1 °F 1015.1 in Calm     38 % 0.0 in 16.0 W/m2 BKN
21:00 30.9 °F 15.4 °F 1015.1 in Calm     39 % 0.0 in 12.0 W/m2 BKN
21:05 30.7 °F 14.8 °F 1015.1 in Calm     38 % 0.0 in 9.0 W/m2 BKN
21:10 30.7 °F 14.7 °F 1015.5 in Calm     38 % 0.0 in 7.0 W/m2 BKN
21:15 30.5 °F 15.4 °F 1015.5 in Calm     40 % 0.0 in 5.0 W/m2 OVC
21:20 30.3 °F 15.2 °F 1015.5 in Calm     40 % 0.0 in 0.0 W/m2 OVC
21:25 30.2 °F 15.1 °F 1015.5 in Calm     40 % 0.0 in 0.0 W/m2 OVC
21:30 30.0 °F 15.7 °F 1015.8 in Calm     42 % 0.0 in 0.0 W/m2 OVC
21:35 29.7 °F 15.4 °F 1015.8 in Calm     42 % 0.0 in 0.0 W/m2 OVC
21:40 29.5 °F 15.2 °F 1016.1 in Calm     42 % 0.0 in 0.0 W/m2 OVC
21:45 29.3 °F 16.1 °F 1016.1 in Calm     45 % 0.0 in 0.0 W/m2 CLR
21:50 28.9 °F 15.8 °F 1016.1 in Calm     45 % 0.0 in 0.0 W/m2 CLR
21:55 28.6 °F 15.8 °F 1016.5 in Calm     46 % 0.0 in 0.0 W/m2 CLR
22:00 28.3 °F 15.2 °F 1016.5 in Calm     45 % 0.0 in 0.0 W/m2 CLR
22:05 28.3 °F 15.2 °F 1017.2 in WNW 25.7 mph 25.7 mph 45 % 0.0 in 0.0 W/m2 CLR
22:07 28.7 °F 15.2 °F 1017.2 in NW 27.8 mph 27.8 mph 44 % 0.0 in 0.0 W/m2 CLR
22:12 29.3 °F 16.1 °F 1017.2 in NW 11.1 mph 11.1 mph 45 % 0.0 in 0.0 W/m2 CLR
22:17 29.3 °F 16.5 °F 1017.2 in WNW 9.3 mph 9.3 mph 46 % 0.0 in 0.0 W/m2 CLR
22:22 29.2 °F 17.1 °F 1017.5 in NW 9.3 mph 9.3 mph 48 % 0.0 in 0.0 W/m2 CLR
22:27 29.0 °F 17.2 °F 1017.5 in WNW 13.0 mph 13.0 mph 49 % 0.0 in 0.0 W/m2 CLR
22:32 28.9 °F 17.4 °F 1017.5 in NW 5.6 mph 5.6 mph 50 % 0.0 in 0.0 W/m2 CLR
22:37 28.7 °F 17.6 °F 1017.8 in NW 7.4 mph 7.4 mph 51 % 0.0 in 0.0 W/m2 CLR
22:42 28.6 °F 17.8 °F 1017.8 in NW 5.6 mph 5.6 mph 52 % 0.0 in 0.0 W/m2 CLR
22:47 28.6 °F 17.7 °F 1017.8 in Calm     52 % 0.0 in 0.0 W/m2 CLR
22:52 28.5 °F 18.0 °F 1017.8 in Calm     53 % 0.0 in 0.0 W/m2 CLR
22:57 28.4 °F 17.9 °F 1017.8 in Calm     53 % 0.0 in 0.0 W/m2 CLR
23:02 28.3 °F 17.8 °F 1017.8 in Calm     53 % 0.0 in 0.0 W/m2 CLR
23:07 28.2 °F 18.1 °F 1018.2 in Calm     54 % 0.0 in 0.0 W/m2 CLR
23:12 28.1 °F 17.9 °F 1017.8 in Calm     54 % 0.0 in 0.0 W/m2 CLR
23:17 27.9 °F 17.8 °F 1017.8 in Calm     54 % 0.0 in 0.0 W/m2 CLR
23:22 27.8 °F 17.7 °F 1017.8 in Calm     54 % 0.0 in 0.0 W/m2 CLR
23:27 27.7 °F 17.6 °F 1017.8 in Calm     54 % 0.0 in 0.0 W/m2 CLR
23:32 27.6 °F 17.4 °F 1017.8 in Calm     54 % 0.0 in 0.0 W/m2 CLR
23:37 27.5 °F 17.4 °F 1017.8 in Calm     54 % 0.0 in 0.0 W/m2 CLR
23:42 27.3 °F 17.5 °F 1017.8 in Calm     55 % 0.0 in 0.0 W/m2 CLR
23:47 27.1 °F 17.5 °F 1018.2 in Calm     56 % 0.0 in 0.0 W/m2 CLR
23:52 27.0 °F 17.5 °F 1018.2 in Calm     56 % 0.0 in 0.0 W/m2 CLR
23:57 26.9 °F 17.4 °F 1018.2 in Calm     56 % 0.0 in 0.0 W/m2 CLR
Lo Temps de Massalio
Compliments of Weather Underground - 1.25 mb